Regional Weather Roundup
Issued by NWS Goodland, KS

Home | Current Version | Previous Version | Text Only | Print | Product List | Glossary Off
Versions: 1 2 3 4 5 6 7 8 9 10 11 12 13 14 15 16 17 18 19 20 21 22 23 24 25 26 27 28 29 30 31 32 33 34 35 36 37 38 39 40 41 42 43 44 45 46 47 48 49 50

000
ASUS43 KGLD 181908
RWRGLD

GOODLAND FORECAST AREA HOURLY WEATHER ROUNDUP
NATIONAL WEATHER SERVICE GOODLAND KS
1200 PM MST THU DEC 18 2014

...OFFICIAL OBSERVATIONS...

CITY           SKY/WX    TMP DP  RH WIND       PRES   REMARKS
GOODLAND KS    SUNNY     31  29  92 SW7       30.07F
HILL CITY KS   CLOUDY    31  27  85 W5        30.15F
IMPERIAL NEB   CLOUDY    25  22  88 W5        30.08F FOG
MCCOOK NEB     CLOUDY    28  26  92 SW7       30.12F
AKRON CO         N/A     28  24  85 W9        30.04F FOG
BURLINGTON CO  SUNNY     34  28  79 W6        30.05F
LIMON CO       SUNNY     42  23  46 SE10      30.04F
$$

...UNOFFICIAL OBSERVATIONS...

CITY           SKY/WX    TMP DP  RH WIND       PRES   REMARKS
GOVE KS          N/A     31  32 100 MISG        N/A
SHARON SPRINGS   N/A     32  31  96 SW7         N/A
TRIBUNE KS     PTSUNNY   32  32 100 SW7       30.11F
KIT CARSON CO    N/A     27  25  92 MISG        N/A
YUMA CO          N/A     31  29  92 W6          N/A
$$



USA.gov is the U.S. government's official web portal to all federal, state and local government web resources and services.